| time (UTC) | temp C | wind direction | speed KPH | gust KPH | rain 1hr cm | rain 24hr cm | rain mn cm | humidity % | barometer mb |
| 20260504081015 | 9 | 0.0 | 0.0 | 0.00 | 0.00 | 0.00 | 67 | 1015.2 | |
| 20260504050023 | 8 | 0.0 | 0.0 | 0.00 | 0.00 | 0.00 | 61 | 1015.4 | |
| 20260504045015 | 8 | 0.0 | 0.0 | 0.00 | 0.00 | 0.00 | 59 | 1015.4 | |
| 20260504044025 | 8 | 0.0 | 0.0 | 0.00 | 0.00 | 0.00 | 56 | 1015.5 | |
| 20260504043016 | 9 | 59 | 0.0 | 1.6 | 0.00 | 0.00 | 0.00 | 56 | 1015.5 |
| 20260504042024 | 10 | 0.0 | 0.0 | 0.00 | 0.00 | 0.00 | 53 | 1015.4 | |
| 20260504041016 | 9 | 37 | 0.0 | 1.6 | 0.00 | 0.00 | 0.00 | 55 | 1015.4 |
| 20260504040024 | 8 | 343 | 0.0 | 1.6 | 0.00 | 0.00 | 0.00 | 59 | 1015.3 |
| 20260504035016 | 8 | 314 | 0.0 | 1.6 | 0.00 | 0.00 | 0.00 | 59 | 1015.3 |
| 20260504034023 | 8 | 275 | 0.0 | 1.6 | 0.00 | 0.00 | 0.00 | 61 | 1015.2 |
| 20260504033030 | 7 | 0.0 | 0.0 | 0.00 | 0.00 | 0.00 | 64 | 1015.2 | |
| 20260504032023 | 7 | 0.0 | 0.0 | 0.00 | 0.00 | 0.00 | 63 | 1015.0 | |
| 20260504031017 | 7 | 0.0 | 0.0 | 0.00 | 0.00 | 0.00 | 63 | 1014.8 | |
| 20260504030045 | 7 | 0.0 | 0.0 | 0.00 | 0.00 | 0.00 | 62 | 1014.9 | |
| 20260504025017 | 7 | 0.0 | 0.0 | 0.00 | 0.00 | 0.00 | 63 | 1014.8 | |
| 20260504024024 | 8 | 0.0 | 0.0 | 0.00 | 0.00 | 0.00 | 63 | 1014.9 | |
| 20260504023036 | 8 | 0.0 | 0.0 | 0.00 | 0.00 | 0.00 | 60 | 1014.9 | |
| 20260504022024 | 8 | 0.0 | 0.0 | 0.00 | 0.00 | 0.00 | 59 | 1014.7 | |
| 20260504021036 | 8 | 0.0 | 0.0 | 0.00 | 0.00 | 0.00 | 62 | 1014.7 | |
| 20260504020023 | 8 | 0.0 | 0.0 | 0.00 | 0.00 | 0.00 | 63 | 1014.7 | |
| 20260504015049 | 8 | 0.0 | 0.0 | 0.00 | 0.00 | 0.00 | 62 | 1014.6 | |
| 20260504014025 | 8 | 0.0 | 0.0 | 0.00 | 0.00 | 0.00 | 65 | 1014.8 | |
| 20260504013017 | 8 | 0.0 | 0.0 | 0.00 | 0.00 | 0.00 | 63 | 1014.7 | |
| 20260504012045 | 8 | 0.0 | 0.0 | 0.00 | 0.00 | 0.00 | 60 | 1014.6 | |
| 20260504011017 | 8 | 0.0 | 0.0 | 0.00 | 0.00 | 0.00 | 60 | 1014.5 | |
| 20260504010024 | 8 | 0.0 | 0.0 | 0.00 | 0.00 | 0.00 | 61 | 1014.4 | |
| 20260504005016 | 9 | 0.0 | 0.0 | 0.00 | 0.00 | 0.00 | 57 | 1014.4 | |
| 20260504004024 | 10 | 0.0 | 0.0 | 0.00 | 0.00 | 0.00 | 56 | 1014.2 | |
| 20260504003016 | 10 | 0.0 | 0.0 | 0.00 | 0.00 | 0.00 | 54 | 1014.2 | |
| 20260504002030 | 11 | 0.0 | 0.0 | 0.00 | 0.00 | 0.00 | 50 | 1014.1 | |
| 20260504001017 | 12 | 0.0 | 0.0 | 0.00 | 0.00 | 0.00 | 47 | 1014.0 | |
| 20260504000025 | 13 | 275 | 0.0 | 1.6 | 0.00 | 0.00 | 0.00 | 40 | 1014.0 |
| 20260503235017 | 13 | 0.0 | 0.0 | 0.00 | 0.00 | 0.00 | 40 | 1014.0 | |
| 20260503234024 | 14 | 234 | 1.6 | 4.8 | 0.00 | 0.00 | 0.00 | 36 | 1013.8 |
| 20260503233016 | 15 | 341 | 0.0 | 3.2 | 0.00 | 0.00 | 0.00 | 36 | 1013.6 |
| 20260503232024 | 15 | 256 | 1.6 | 4.8 | 0.00 | 0.00 | 0.00 | 35 | 1013.5 |
| 20260503231016 | 16 | 227 | 1.6 | 8.0 | 0.00 | 0.00 | 0.00 | 33 | 1013.5 |
| 20260503230024 | 16 | 230 | 0.0 | 3.2 | 0.00 | 0.00 | 0.00 | 33 | 1013.5 |
| 20260503225015 | 16 | 245 | 1.6 | 4.8 | 0.00 | 0.00 | 0.00 | 33 | 1013.7 |
| 20260503224025 | 17 | 247 | 1.6 | 6.4 | 0.00 | 0.00 | 0.00 | 33 | 1013.6 |
| 20260503223017 | 17 | 33 | 0.0 | 1.6 | 0.00 | 0.00 | 0.00 | 33 | 1013.6 |
| 20260503222045 | 16 | 232 | 1.6 | 4.8 | 0.00 | 0.00 | 0.00 | 33 | 1013.7 |
| 20260503221025 | 17 | 284 | 3.2 | 8.0 | 0.00 | 0.00 | 0.00 | 31 | 1013.6 |
| 20260503220024 | 16 | 229 | 3.2 | 6.4 | 0.00 | 0.00 | 0.00 | 31 | 1013.7 |
| 20260503215016 | 16 | 242 | 3.2 | 9.7 | 0.00 | 0.00 | 0.00 | 31 | 1013.7 |
| 20260503214024 | 17 | 266 | 1.6 | 3.2 | 0.00 | 0.00 | 0.00 | 32 | 1013.6 |
| 20260503213016 | 17 | 302 | 1.6 | 4.8 | 0.00 | 0.00 | 0.00 | 32 | 1013.6 |
| 20260503212024 | 17 | 247 | 1.6 | 8.0 | 0.00 | 0.00 | 0.00 | 32 | 1013.7 |
| 20260503211017 | 16 | 232 | 1.6 | 6.4 | 0.00 | 0.00 | 0.00 | 31 | 1013.7 |
| 20260503210017 | 16 | 222 | 3.2 | 6.4 | 0.00 | 0.00 | 0.00 | 32 | 1013.7 |
| 20260503205017 | 16 | 213 | 1.6 | 8.0 | 0.00 | 0.00 | 0.00 | 31 | 1013.6 |
| 20260503204024 | 17 | 230 | 3.2 | 4.8 | 0.00 | 0.00 | 0.00 | 33 | 1013.8 |
| 20260503203016 | 16 | 264 | 3.2 | 8.0 | 0.00 | 0.00 | 0.00 | 34 | 1014.0 |
| 20260503202024 | 16 | 253 | 3.2 | 6.4 | 0.00 | 0.00 | 0.00 | 34 | 1013.9 |
| 20260503201016 | 17 | 42 | 1.6 | 4.8 | 0.00 | 0.00 | 0.00 | 34 | 1014.0 |
| 20260503200024 | 16 | 310 | 3.2 | 4.8 | 0.00 | 0.00 | 0.00 | 34 | 1014.1 |
| 20260503195037 | 16 | 249 | 1.6 | 6.4 | 0.00 | 0.00 | 0.00 | 36 | 1014.3 |
| 20260503194025 | 16 | 254 | 1.6 | 9.7 | 0.00 | 0.00 | 0.00 | 37 | 1014.5 |
| 20260503193017 | 16 | 287 | 3.2 | 9.7 | 0.00 | 0.00 | 0.00 | 36 | 1014.6 |
| 20260503192045 | 15 | 230 | 4.8 | 9.7 | 0.00 | 0.00 | 0.00 | 37 | 1014.7 |
| 20260503191017 | 15 | 225 | 3.2 | 9.7 | 0.00 | 0.00 | 0.00 | 37 | 1014.8 |
| 20260503190018 | 15 | 271 | 3.2 | 9.7 | 0.00 | 0.00 | 0.00 | 38 | 1014.9 |
| 20260503185016 | 15 | 241 | 3.2 | 4.8 | 0.00 | 0.00 | 0.00 | 38 | 1015.1 |
| 20260503184044 | 15 | 235 | 3.2 | 8.0 | 0.00 | 0.00 | 0.00 | 38 | 1015.1 |
| 20260503183017 | 15 | 238 | 3.2 | 14.5 | 0.00 | 0.00 | 0.00 | 38 | 1015.2 |
| 20260503182026 | 13 | 250 | 4.8 | 9.7 | 0.00 | 0.00 | 0.00 | 39 | 1015.3 |
| 20260503181017 | 13 | 355 | 1.6 | 4.8 | 0.00 | 0.00 | 0.00 | 41 | 1015.3 |
| 20260503180019 | 14 | 318 | 1.6 | 4.8 | 0.00 | 0.00 | 0.00 | 41 | 1015.4 |
| 20260503175036 | 13 | 282 | 3.2 | 9.7 | 0.00 | 0.00 | 0.00 | 43 | 1015.5 |
| 20260503174024 | 13 | 217 | 3.2 | 11.3 | 0.00 | 0.00 | 0.00 | 41 | 1015.6 |
| 20260503173016 | 13 | 241 | 3.2 | 9.7 | 0.00 | 0.00 | 0.00 | 41 | 1015.7 |
| 20260503172024 | 13 | 226 | 3.2 | 9.7 | 0.00 | 0.00 | 0.00 | 41 | 1015.6 |
| 20260503171018 | 12 | 204 | 3.2 | 8.0 | 0.00 | 0.00 | 0.00 | 43 | 1015.8 |
| 20260503131018 | 8 | 302 | 1.6 | 6.4 | 0.00 | 0.00 | 0.00 | 58 | 1016.5 |